Regional Weather Roundup
Issued by NWS

Home | Current Version | Previous Version | Graphics & Text | Print | Product List | Glossary On
Versions: 1 2 3 4 5 6 7 8 9 10 11 12 13 14 15 16 17 18 19 20 21 22 23 24 25 26 27 28 29 30 31 32 33 34 35 36 37 38 39 40 41 42 43 44 45 46 47 48 49 50
376
ASUS43 KFSD 240610
RWRSD

WEATHER ROUNDUP FOR SOUTH DAKOTA
NATIONAL WEATHER SERVICE SIOUX FALLS SD
100 AM CDT TUE APR 24 2018

NOTE: "FAIR" INDICATES FEW OR NO CLOUDS BELOW 12,000 FEET WITH NO
SIGNIFICANT WEATHER AND/OR OBSTRUCTIONS TO VISIBILITY.


SDZ001>005-009-010-012>017-240700-
NORTHWEST AND NORTH CENTRAL SOUTH DAKOTA

CITY           SKY/WX    TMP DP  RH WIND       PRES   REMARKS
BUFFALO          N/A     34  31  88 N22       30.26  WCI  22
FAITH            N/A     42  41  96 N25G36    30.19R
MOBRIDGE       LGT RAIN  48  41  76 N17       30.16R
$$

SDZ012>016-024>037-041>051-057-063-072>074-240700-
SOUTHWEST AND SOUTH CENTRAL SOUTH DAKOTA

CITY           SKY/WX    TMP DP  RH WIND       PRES   REMARKS
RAPID CTY ARPT CLOUDY    37  32  82 NW38G49   30.24R
PIERRE         CLOUDY    54  44  69 SE14      30.06S
CUSTER         PTCLDY    32  24  72 N14G24    30.21R WCI  22
PHILIP         LGT RAIN  46  43  89 NW29G40   30.10S
PINE RIDGE     CLOUDY    40  38  93 N13G21    30.26R
SPEARFISH      LGT RAIN  34  34 100 NW18G24   30.35R WCI  23
WINNER         LGT RAIN  57  43  59 W10       30.13R
$$

SDZ004>011-016>023-039-040-240700-
NORTHEAST SOUTH DAKOTA

CITY           SKY/WX    TMP DP  RH WIND       PRES   REMARKS
ABERDEEN       CLOUDY    54  43  66 NE14      30.14S
WATERTOWN      CLOUDY    53  41  63 CALM      30.14S
BROOKINGS      CLOUDY    52  42  69 CALM      30.15R
SISSETON         N/A     52  43  71 NW3       30.16S
$$

SDZ017-020-022-023-036>040-048>070-240700-
SOUTHEAST SOUTH DAKOTA

CITY           SKY/WX    TMP DP  RH WIND       PRES   REMARKS
SIOUX FALLS    PTCLDY    46  39  76 NE3       30.13F
HURON          CLOUDY    56  44  64 SE12      30.11S
CHAMBERLAIN    CLOUDY    57  45  64 SE12      30.09R
MITCHELL       CLOUDY    56  43  61 SE10      30.12S
YANKTON        CLEAR     51  40  65 E5        30.14R
$$

ABBREVIATIONS USED IN REMARKS
   TC - TEMPERATURE IN CELSIUS
  WCI - WIND CHILL INDEX
   HX - HEAT INDEX
  VSB - VISIBILITY





USA.gov is the U.S. government's official web portal to all federal, state and local government web resources and services.